Regional Weather Roundup
Issued by NWS Charleston, SC

Current Version | Previous Version | Graphics & Text | Print | Product List | Glossary On
Versions: 1 2 3 4 5 6 7 8 9 10 11 12 13 14 15 16 17 18 19 20 21 22 23 24 25 26 27 28 29 30 31 32 33 34 35 36 37 38 39 40 41 42 43 44 45 46 47 48 49 50
000
ASUS42 KCHS 292228
RWRCHS

REGIONAL WEATHER ROUNDUP
NATIONAL WEATHER SERVICE CHARLESTON SC
600 PM EDT THU SEP 29 2016

NOTE: "FAIR" INDICATES FEW OR NO CLOUDS BELOW 12,000 FEET WITH NO
SIGNIFICANT WEATHER AND/OR OBSTRUCTIONS TO VISIBILITY.

NOT ALL STATIONS ARE QUALITY CONTROLLED. USE DATA WITH CAUTION...
ESPECIALLY DEWPOINT OBSERVATIONS.

SCZ027-030-031-034>040-042>050-292300-
...SOUTHEAST SOUTH CAROLINA...

CITY           SKY/WX    TMP DP  RH WIND       PRES   REMARKS
N CHARLESTON   MOSUNNY   83  71  67 S8        29.94R
WATERFRONT PRK   N/A     84  74  72 S6        29.92R HX  91
MOUNT PLEASANT FAIR      82  75  78 S5        29.95R
JOHNS ISLAND   FAIR      82  75  78 S8        29.95R
PINOPOLIS        N/A     88  70  55 VRB2      29.86R HX  92
MONCKS CORNER  FAIR      79  70  73 CALM      29.94R
SUMMERVILLE    NOT AVBL
BEAUFORT MCAS  MOSUNNY   85  72  65 SE6       29.93R HX  91
BEAUFORT ARPT  FAIR      82  68  61 S9        29.93S
HILTON HEAD IS SUNNY     86  72  62 S10       29.95R HX  92
WALTERBORO     CLEAR     88  61  40 S6        29.95R
ALLENDALE      FAIR      86  64  48 CALM      29.92R

...SOUTHERN MIDLANDS AND PEE DEE...

CITY           SKY/WX    TMP DP  RH WIND       PRES   REMARKS
GEORGETOWN     FAIR      73  70  88 E5        29.98R
KINGSTREE      FAIR      75  66  73 E8        29.95R
ORANGEBURG     SUNNY     85  59  41 SW8       29.93R
BARNWELL       NOT AVBL
AIKEN          FAIR      82  54  36 S6        29.96R
MANNING        FAIR      84  64  51 SW6       29.93R
COLUMBIA       SUNNY     88  52  29 S10       29.91R
SUMTER         SUNNY     87  57  36 SW7       29.91R
FLORENCE       MOSUNNY   77  69  76 E9        29.96R
MYRTLE BEACH   RAIN      73  61  64 S7        29.99F
N MYRTLE BEACH LGT RAIN  74  69  85 CALM      29.98S

$$

GAZ063-065-086>088-099>101-113>116-118-119-134>141-150-292300-
...SOUTHEAST GEORGIA...

CITY           SKY/WX    TMP DP  RH WIND       PRES   REMARKS
SAVANNAH ARPT  MOSUNNY   88  66  48 S12       29.93R HX  90
HUNTER AAF     SUNNY     85  75  72 S13G18    29.91R HX  92
FORT STEWART   SUNNY     88  66  48 CALM      29.90R HX  91
STATESBORO     MOSUNNY   84  73  70 CALM      29.92S HX  90
SYLVANIA       NOT AVBL
CLAXTON        FAIR      83  72  68 CALM      29.92S

...CSRA...CENTRAL AND FAR SOUTHEAST GEORGIA...

CITY           SKY/WX    TMP DP  RH WIND       PRES   REMARKS
THOMSON        SUNNY     88  56  34 W7        29.96R
AUGUSTA-BUSH   MOSUNNY   87  52  29 W7        29.89S
AUGUSTA-DANIEL MOSUNNY   88  49  25 SW7       29.92R
SWAINSBORO     FAIR      88  57  35 SW3       29.93R
VIDALIA        SUNNY     88  66  48 SW7       29.93R HX  90
EASTMAN        FAIR      89  23   9 W3        29.95R
HAZLEHURST     FAIR      88  60  38 NE6       29.92S
ALMA           SUNNY     88  64  44 W6        29.92S
WAYCROSS       MOSUNNY   91  71  52 SW5       29.93R HX  97
JESUP          FAIR      88  75  66 S3        29.93R HX  97
BAXLEY         FAIR      88  70  55 W6        29.92S HX  92
BRUNSWICK      SUNNY     84  77  79 SE8       29.95R HX  94
SAINT SIMONS   CLOUDY    83  74  74 SE10      29.94S

$$

SCZ027-028-034-036>038-045-046-048>050-GAZ119-141-292300-
...LAKE AND SUPPLEMENTAL COASTAL OBSERVATIONS...

STATION/POSITION TIME  TEMP    WIND        PRES    WAVE   SWELL
                       AIR SEA DIR/SP/G            HT/PER HT/PER/DIR
                 (UTC) (F)     (DEG/KT/KT) (MB)    (FT/S) (FT/S/D)
WINYAH BAY       NOT AVBL
LAKE MURRAY      2150   86     230/  4/  6 1012.2S
ACE BASIN NERRS  NOT AVBL
FORT PULASKI     2200   83 82  150/ 10/ 14 1014.2
SAPELO ISLAND    NOT AVBL

$$

ANZ835-935-AMZ111-154-330-350-352-354-370-450-454-472-292300-
...C-MAN AND BUOY OBSERVATIONS...

STATION/POSITION TIME  TEMP    WIND        PRES    WAVE   SWELL
                       AIR SEA DIR/SP/G            HT/PER HT/PER/DIR
                 (UTC) (F)     (DEG/KT/KT) (MB)    (FT/S) (FT/S/D)
BUOY 41004       2150   82 82  190/ 12/ 14 1014.2R   3/ 5   2/120/10
BUOY 41008       2150   82 83  170/ 12/ 14 1013.7F   2/10   2/100/10
FOLLY BEACH CMAN 2200   80     210/ 12/ 13 1014.4R
CAPERS NEARSHORE 2108   81 82  200/ 12/ 16 1013.7R
FRIPP NEARSHORE  2108   82 82  180/ 12/ 16 1013.7R


STATION/POSITION TIME  TEMP    WIND        PRES    WAVE   SWELL
                       AIR SEA DIR/SP/G            HT/PER HT/PER/DIR
                 (UTC) (F)     (DEG/KT/KT) (MB)    (FT/S) (FT/S/D)
5E ST. MARYS GA  2201      83                N/A     3/ 4   2/110/11
FRYING PAN BUOY  2210   81 82  160/ 10/ 12 1015.6
BUOY 41025       2150   79 79   80/  4/  6 1016.1S   4/ 9   3/ 60/ 9
CAPE LOOKOUT NC  2200   77      90/  6/  7 1016.1R
BUOY 41002       2150   81 83  190/ 10/ 12 1016.6F   3/ 6   3/140/ 6
BUOY 41010       NOT AVBL
ST AUGUSTINE FL  2200   80 84  200/ 12/ 15 1015.5F


$$



USA.gov is the U.S. government's official web portal to all federal, state and local government web resources and services.